Location: Arpaise
(41.0333°N, 14.7333°E)
Time: 01:30:09
(UTC+00:00)

USA 215 - Pass Details

Date: 05 July 2020
Orbit: 1102 x 1106 km, 123.0° (Epoch: 08 August)

Event Time Altitude Azimuth Distance (km) Brightness Sun altitude
Rises 20:58:06 0° 45° (NE) 3,924 6.3 -19.7°
Reaches altitude 10° 21:00:36 10° 43° (NE) 2,964 5.7 -20.0°
Maximum altitude 21:07:04 68° 323° (NW) 1,183 3.6 -20.6°
Drops below altitude 10° 21:13:32 10° 242° (WSW) 2,954 5.5 -21.2°
Sets 21:16:01 0° 240° (WSW) 3,909 6.1 -21.4°
